This is the latest recevied weather packets stored in our database for station/object R2AKT-13. If no packets are shown the sender has not sent any weather packets the latest 10 day(s).
| Time | Temp. | Humidity | Pressure | Rain* | Wind** | Luminosity | Snow |
|---|---|---|---|---|---|---|---|
| 1777936794 | 16.67° C | 48% | 983.3 hPa | - | 1.34 m/s, 190° | - | - |
| 1777936289 | 16.67° C | 48% | 983.3 hPa | - | 0.89 m/s, 190° | - | - |
| 1777935799 | 16.67° C | 49% | 983.4 hPa | - | 1.79 m/s, 184° | - | - |
| 1777935282 | 17.22° C | 48% | 983.4 hPa | - | 1.79 m/s, 206° | - | - |
| 1777934794 | 17.22° C | 48% | 983.4 hPa | - | 0.89 m/s, 199° | - | - |
| 1777934194 | 17.22° C | 48% | 983.5 hPa | - | 1.79 m/s, 203° | - | - |
| 1777933699 | 17.22° C | 48% | 983.5 hPa | - | 1.34 m/s, 200° | - | - |
| 1777933189 | 17.22° C | 48% | 983.6 hPa | - | 1.34 m/s, 216° | - | - |
| 1777932684 | 17.22° C | 48% | 983.5 hPa | - | 1.79 m/s, 200° | - | - |
| 1777932159 | 17.78° C | 48% | 983.5 hPa | - | 2.24 m/s, 188° | - | - |
| 1777931589 | 17.78° C | 47% | 983.6 hPa | - | 1.79 m/s, 180° | - | - |
| 1777931009 | 17.78° C | 47% | 983.5 hPa | - | 3.13 m/s, 185° | - | - |
| 1777930439 | 17.78° C | 47% | 983.7 hPa | - | 2.24 m/s, 182° | - | - |
| 1777929939 | 17.78° C | 47% | 983.7 hPa | - | 1.79 m/s, 197° | - | - |
| 1777929449 | 17.78° C | 47% | 983.8 hPa | - | 2.24 m/s, 187° | - | - |
| 1777928879 | 18.33° C | 46% | 983.8 hPa | - | 1.79 m/s, 195° | - | - |
| 1777928389 | 18.33° C | 46% | 983.9 hPa | - | 1.79 m/s, 187° | - | - |
| 1777927849 | 18.33° C | 46% | 983.9 hPa | - | 1.79 m/s, 191° | - | - |
| 1777927369 | 18.33° C | 45% | 984 hPa | - | 1.79 m/s, 188° | - | - |
| 1777926784 | 18.89° C | 45% | 983.9 hPa | - | 2.24 m/s, 192° | - | - |
| 1777926259 | 18.89° C | 44% | 983.9 hPa | - | 1.79 m/s, 193° | - | - |
| 1777925709 | 18.89° C | 44% | 984 hPa | - | 1.79 m/s, 182° | - | - |
| 1777925134 | 18.89° C | 43% | 984 hPa | - | 2.24 m/s, 183° | - | - |
| 1777924584 | 18.89° C | 43% | 984 hPa | - | 2.24 m/s, 195° | - | - |
| 1777923999 | 19.44° C | 42% | 984 hPa | - | 1.79 m/s, 185° | - | - |
* Rain since midnight (hover to see other rain measurements)
** Current wind speed in m/s (hover to see current wind gust speed)